Starlink 31078

operational
NORAD ID: 58638 Int'l Des: 2023-203 Owner: SPXS Country: US Constellation: starlink
LEOCIRCULAR

Über Starlink 31078

Beschreibung wird geladen...

Live-Position

3D-Globus wird geladen...

Nächste Überflüge

Höhenverlauf

Altitude vs Time

uPlot chart will show altitude changes over time

Zweizeiliger Elementsatz

1 58638U 23203W 25351.79001098 -.00000908 00000-0 -23480-4 0 9990
2 58638 43.0008 169.8141 0001179 265.6724 94.3993 15.27575435111034
Epoch: 17. Dez. 2025 • Age: 16 hours

Aktueller Status

Höhe 489.8 km
Geschwindigkeit 7.62 km/s
Subsatellitenpunkt -27.95°S, 112.56°W
Startdatum 23. Dez. 2023
Alter 1.9 years
Typ internet

Technische Details

Klassifizierung Payload
Masse 730.00 kg
Trockenmasse 700.00 kg
Gesamtmasse 730.00 kg
Länge 0.30 m
Durchmesser 4.10 m
Spannweite 29.00 m
Form Box + pan
Hersteller SPXS
Bus-Typ Starlink V2M
Phasenstatus In Orbit
Besitzer/Staat SPXS/US

Große Konstellationen

Loading constellations...